COSMOS 1275 DEB, 12708

Orbit data source: Space-Track

COSMOS 1275 DEB, 12708 is space debris in LEO originally from a launch on Thu, 04 Jun 1981 UTC launched from the Plesetsk Missile And Space Complex (PKMTR). Debris objects in space refer to the collection of defunct objects orbiting the Earth. Examples of debris include non-operational satellites, rocket bodies, and fragments generated from explosions, collisions, or faulty payload assembly.

Loading next visibility...
Identifier
12708, 1981-053BC
Orbit
LEO
Country
Flag of CISCIS
Related business
Manufacturer
Unknown
Mission
Spacecraft
Bus & Motor
Unknown
Mass
Unknown
Launch date (UTC)
1981-06-04 (45 years ago)
Launch vehicle
Unknown
Launch site
Plesetsk Missile And Space Complex (PKMTR)
Object type
Payload
Rocket body
Debris
Shape & HBR
Unknown shape, 0.2 m
Radar Cross Section
Small (<0.1 m²)

Expand to show TLE details & history
Last TLE update: 9 hours ago

TLE from 9 hours ago
0 COSMOS 1275 DEB
1 12708U 81053BC  25351.63241731  .00005177  00000-0  90841-3 0  9993
2 12708  82.8619 201.1569 0021786  35.4663 324.7987 14.67424339287212
Epoch: 2025-12-17T15:10Z
TLE epoch observation values (Epoch: 2025-12-17T15:10:40.855Z)
Latitude
-0.00007°
Longitude
-113.01283°
Altitude
659.791 km
Speed
7.534 km/s
True Right ascension
13h 24m 37s
True Declination
0° 00' 00"
Sunlit
Object was in daylight at epoch
Visualization orbit readout
Latitude
Unknown
Longitude
Unknown
Altitude
Unknown
Speed
Unknown
Apparent Right ascension
Unknown
Apparent Declination
Unknown
Sunlit
N/A
Visualization observer readout
Local Sidereal Time
23:05:06
Azimuth
Unknown
Elevation
Unknown
Doppler factor
Unknown
Orbital elements
Apogee altitude
681.675 km
Perigee altitude
650.981 km
Semi-major axis
7,044.465 km
Eccentricity
0.00218
Inclination
82.8619°
RAAN
201.1569°
Arg. of periapsis
35.4663°
True anomaly
324.65447°
Mean anomaly
324.7987°
Eccentric anomaly
324.72662°
Mean motion
3.67089 °/min
Orbital period
98.07 mins
BSTAR
0.00090841
Loading maneuver chart data...
Computing Atmospheric mass density...
Loading historical data...
Loading historical data...
Loading historical data...
Loading historical data...
Loading historical data...
Loading historical data...
Loading historical data...

Documentation

Showing up to 5 results
|